Back to catalog

FENGYUN 1C DEB

AliveSSO
NORAD 30730·DEBRIS·🇨🇳 China

Launched May 10, 1999 from Taiyuan Satellite Launch Center

Loading…

Next Passes (next 24 hours)

TLE

FreshSource: Space-Track

Epoch: Sep 14, 2026, 08:32 UTC

1 30730U 99025ASQ 26257.35567426  .00001121  00000-0  46882-3 0  9994
2 30730  98.5957 296.6343 0075553 325.2550  97.2500 14.26539636  9241

Track FENGYUN 1C DEB in real time with AllMySat

Download on the App Store